"Time","Value","Approval","myLocation"
"2023-12-01 08:00",2.755,"Working","OW439"
"2023-12-01 09:00",2.756,"Working","OW439"
"2023-12-01 10:00",2.756,"Working","OW439"
"2023-12-01 11:00",2.757,"Working","OW439"
"2023-12-01 12:00",2.755,"Working","OW439"
"2023-12-01 13:00",2.752,"Working","OW439"
"2023-12-01 14:00",2.75,"Working","OW439"
"2023-12-01 15:00",2.748,"Working","OW439"
"2023-12-01 16:00",2.748,"Working","OW439"
"2023-12-01 17:00",2.749,"Working","OW439"
"2023-12-01 18:00",2.753,"Working","OW439"
"2023-12-01 19:00",2.757,"Working","OW439"
"2023-12-01 20:00",2.76,"Working","OW439"
"2023-12-01 21:00",2.764,"Working","OW439"
"2023-12-01 22:00",2.767,"Working","OW439"
"2023-12-01 23:00",2.77,"Working","OW439"
"2023-12-02 00:00",2.772,"Working","OW439"
"2023-12-02 01:00",2.774,"Working","OW439"
"2023-12-02 02:00",2.774,"Working","OW439"
"2023-12-02 03:00",2.773,"Working","OW439"
"2023-12-02 04:00",2.772,"Working","OW439"
"2023-12-02 05:00",2.773,"Working","OW439"
"2023-12-02 06:00",2.77,"Working","OW439"
"2023-12-02 07:00",2.765,"Working","OW439"
"2023-12-02 08:00",2.756,"Working","OW439"
"2023-12-02 09:00",2.735,"Working","OW439"
"2023-12-02 10:00",2.702,"Working","OW439"
"2023-12-02 11:00",2.66,"Working","OW439"
"2023-12-02 12:00",2.611,"Working","OW439"
"2023-12-02 13:00",2.561,"Working","OW439"
"2023-12-02 14:00",2.517,"Working","OW439"
"2023-12-02 15:00",2.482,"Working","OW439"
"2023-12-02 16:00",2.456,"Working","OW439"
"2023-12-02 17:00",2.435,"Working","OW439"
"2023-12-02 18:00",2.419,"Working","OW439"
"2023-12-02 19:00",2.406,"Working","OW439"
"2023-12-02 20:00",2.395,"Working","OW439"
"2023-12-02 21:00",2.386,"Working","OW439"
"2023-12-02 22:00",2.378,"Working","OW439"
"2023-12-02 23:00",2.37,"Working","OW439"
"2023-12-03 00:00",2.363,"Working","OW439"
"2023-12-03 01:00",2.357,"Working","OW439"
"2023-12-03 02:00",2.351,"Working","OW439"
"2023-12-03 03:00",2.345,"Working","OW439"
"2023-12-03 04:00",2.339,"Working","OW439"
"2023-12-03 05:00",2.332,"Working","OW439"
"2023-12-03 06:00",2.326,"Working","OW439"
"2023-12-03 07:00",2.32,"Working","OW439"
"2023-12-03 08:00",2.315,"Working","OW439"
"2023-12-03 09:00",2.311,"Working","OW439"
"2023-12-03 10:00",2.306,"Working","OW439"
"2023-12-03 11:00",2.302,"Working","OW439"
"2023-12-03 12:00",2.297,"Working","OW439"
"2023-12-03 13:00",2.292,"Working","OW439"
"2023-12-03 14:00",2.288,"Working","OW439"
"2023-12-03 15:00",2.285,"Working","OW439"
"2023-12-03 16:00",2.279,"Working","OW439"
"2023-12-03 17:00",2.27,"Working","OW439"
"2023-12-03 18:00",2.264,"Working","OW439"
"2023-12-03 19:00",2.262,"Working","OW439"
"2023-12-03 20:00",2.262,"Working","OW439"
"2023-12-03 21:00",2.261,"Working","OW439"
"2023-12-03 22:00",2.261,"Working","OW439"
"2023-12-03 23:00",2.26,"Working","OW439"
"2023-12-04 00:00",2.259,"Working","OW439"
"2023-12-04 01:00",2.258,"Working","OW439"
"2023-12-04 02:00",2.256,"Working","OW439"
"2023-12-04 03:00",2.253,"Working","OW439"
"2023-12-04 04:00",2.247,"Working","OW439"
"2023-12-04 05:00",2.242,"Working","OW439"
"2023-12-04 06:00",2.239,"Working","OW439"
"2023-12-04 07:00",2.237,"Working","OW439"
"2023-12-04 08:00",2.237,"Working","OW439"
"2023-12-04 09:00",2.237,"Working","OW439"
"2023-12-04 10:00",2.235,"Working","OW439"
"2023-12-04 11:00",2.234,"Working","OW439"
"2023-12-04 12:00",2.23,"Working","OW439"
"2023-12-04 13:00",2.226,"Working","OW439"
"2023-12-04 14:00",2.222,"Working","OW439"
"2023-12-04 15:00",2.219,"Working","OW439"
"2023-12-04 16:00",2.215,"Working","OW439"
"2023-12-04 17:00",2.212,"Working","OW439"
"2023-12-04 18:00",2.209,"Working","OW439"
"2023-12-04 19:00",2.203,"Working","OW439"
"2023-12-04 20:00",2.195,"Working","OW439"
"2023-12-04 21:00",2.179,"Working","OW439"
"2023-12-04 22:00",2.162,"Working","OW439"
"2023-12-04 23:00",2.146,"Working","OW439"
"2023-12-05 00:00",2.122,"Working","OW439"
"2023-12-05 01:00",2.076,"Working","OW439"
"2023-12-05 02:00",2.013,"Working","OW439"
"2023-12-05 03:00",1.945,"Working","OW439"
"2023-12-05 04:00",1.881,"Working","OW439"
"2023-12-05 05:00",1.828,"Working","OW439"
"2023-12-05 06:00",1.779,"Working","OW439"
"2023-12-05 07:00",1.735,"Working","OW439"
"2023-12-05 08:00",1.698,"Working","OW439"
"2023-12-05 09:00",1.67,"Working","OW439"
"2023-12-05 10:00",1.645,"Working","OW439"
"2023-12-05 11:00",1.626,"Working","OW439"
"2023-12-05 12:00",1.614,"Working","OW439"
"2023-12-05 13:00",1.604,"Working","OW439"
"2023-12-05 14:00",1.598,"Working","OW439"
"2023-12-05 15:00",1.596,"Working","OW439"
"2023-12-05 16:00",1.595,"Working","OW439"
"2023-12-05 17:00",1.596,"Working","OW439"
"2023-12-05 18:00",1.597,"Working","OW439"
"2023-12-05 19:00",1.598,"Working","OW439"
"2023-12-05 20:00",1.599,"Working","OW439"
"2023-12-05 21:00",1.6,"Working","OW439"
"2023-12-05 22:00",1.601,"Working","OW439"
"2023-12-05 23:00",1.604,"Working","OW439"
"2023-12-06 00:00",1.607,"Working","OW439"
"2023-12-06 01:00",1.611,"Working","OW439"
"2023-12-06 02:00",1.615,"Working","OW439"
"2023-12-06 03:00",1.618,"Working","OW439"
"2023-12-06 04:00",1.62,"Working","OW439"
"2023-12-06 05:00",1.623,"Working","OW439"
"2023-12-06 06:00",1.627,"Working","OW439"
"2023-12-06 07:00",1.63,"Working","OW439"
"2023-12-06 08:00",1.632,"Working","OW439"
"2023-12-06 09:00",1.635,"Working","OW439"
"2023-12-06 10:00",1.637,"Working","OW439"
"2023-12-06 11:00",1.639,"Working","OW439"
"2023-12-06 12:00",1.643,"Working","OW439"
"2023-12-06 13:00",1.645,"Working","OW439"
"2023-12-06 14:00",1.649,"Working","OW439"
"2023-12-06 15:00",1.652,"Working","OW439"
"2023-12-06 16:00",1.655,"Working","OW439"
"2023-12-06 17:00",1.658,"Working","OW439"
"2023-12-06 18:00",1.662,"Working","OW439"
"2023-12-06 19:00",1.665,"Working","OW439"
"2023-12-06 20:00",1.665,"Working","OW439"
"2023-12-06 21:00",1.666,"Working","OW439"
"2023-12-06 22:00",1.669,"Working","OW439"
"2023-12-06 23:00",1.672,"Working","OW439"
"2023-12-07 00:00",1.677,"Working","OW439"
"2023-12-07 01:00",1.681,"Working","OW439"
"2023-12-07 02:00",1.686,"Working","OW439"
"2023-12-07 03:00",1.69,"Working","OW439"
"2023-12-07 04:00",1.695,"Working","OW439"
"2023-12-07 05:00",1.699,"Working","OW439"
"2023-12-07 06:00",1.703,"Working","OW439"
"2023-12-07 07:00",1.706,"Working","OW439"
"2023-12-07 08:00",1.709,"Working","OW439"
"2023-12-07 09:00",1.713,"Working","OW439"
"2023-12-07 10:00",1.716,"Working","OW439"
"2023-12-07 11:00",1.72,"Working","OW439"
"2023-12-07 12:00",1.723,"Working","OW439"
"2023-12-07 13:00",1.727,"Working","OW439"
"2023-12-07 14:00",1.731,"Working","OW439"
"2023-12-07 15:00",1.735,"Working","OW439"
"2023-12-07 16:00",1.74,"Working","OW439"
"2023-12-07 17:00",1.745,"Working","OW439"
"2023-12-07 18:00",1.75,"Working","OW439"
"2023-12-07 19:00",1.755,"Working","OW439"
"2023-12-07 20:00",1.758,"Working","OW439"
"2023-12-07 21:00",1.762,"Working","OW439"
"2023-12-07 22:00",1.765,"Working","OW439"
"2023-12-07 23:00",1.768,"Working","OW439"
"2023-12-08 00:00",1.773,"Working","OW439"
"2023-12-08 01:00",1.778,"Working","OW439"
"2023-12-08 02:00",1.784,"Working","OW439"
"2023-12-08 03:00",1.788,"Working","OW439"
"2023-12-08 04:00",1.793,"Working","OW439"
"2023-12-08 05:00",1.798,"Working","OW439"
"2023-12-08 06:00",1.802,"Working","OW439"
"2023-12-08 07:00",1.807,"Working","OW439"
"2023-12-08 08:00",1.81,"Working","OW439"
"2023-12-08 09:00",1.813,"Working","OW439"
"2023-12-08 10:00",1.816,"Working","OW439"
"2023-12-08 11:00",1.82,"Working","OW439"
"2023-12-08 12:00",1.824,"Working","OW439"
"2023-12-08 13:00",1.828,"Working","OW439"
"2023-12-08 14:00",1.833,"Working","OW439"
"2023-12-08 15:00",1.836,"Working","OW439"
"2023-12-08 16:00",1.841,"Working","OW439"
"2023-12-08 17:00",1.845,"Working","OW439"
"2023-12-08 18:00",1.85,"Working","OW439"
"2023-12-08 19:00",1.854,"Working","OW439"
"2023-12-08 20:00",1.855,"Working","OW439"
"2023-12-08 21:00",1.857,"Working","OW439"
"2023-12-08 22:00",1.859,"Working","OW439"
"2023-12-08 23:00",1.861,"Working","OW439"
"2023-12-09 00:00",1.866,"Working","OW439"
"2023-12-09 01:00",1.87,"Working","OW439"
"2023-12-09 02:00",1.873,"Working","OW439"
"2023-12-09 03:00",1.876,"Working","OW439"
"2023-12-09 04:00",1.88,"Working","OW439"
"2023-12-09 05:00",1.883,"Working","OW439"
"2023-12-09 06:00",1.886,"Working","OW439"
"2023-12-09 07:00",1.889,"Working","OW439"
"2023-12-09 08:00",1.89,"Working","OW439"
"2023-12-09 09:00",1.89,"Working","OW439"
"2023-12-09 10:00",1.891,"Working","OW439"
"2023-12-09 11:00",1.892,"Working","OW439"
"2023-12-09 12:00",1.893,"Working","OW439"
"2023-12-09 13:00",1.895,"Working","OW439"
"2023-12-09 14:00",1.897,"Working","OW439"
"2023-12-09 15:00",1.898,"Working","OW439"
"2023-12-09 16:00",1.898,"Working","OW439"
"2023-12-09 17:00",1.902,"Working","OW439"
"2023-12-09 18:00",1.905,"Working","OW439"
"2023-12-09 19:00",1.905,"Working","OW439"
"2023-12-09 20:00",1.898,"Working","OW439"
"2023-12-09 21:00",1.886,"Working","OW439"
"2023-12-09 22:00",1.868,"Working","OW439"
"2023-12-09 23:00",1.848,"Working","OW439"
"2023-12-10 00:00",1.829,"Working","OW439"
"2023-12-10 01:00",1.81,"Working","OW439"
"2023-12-10 02:00",1.784,"Working","OW439"
"2023-12-10 03:00",1.75,"Working","OW439"
"2023-12-10 04:00",1.712,"Working","OW439"
"2023-12-10 05:00",1.675,"Working","OW439"
"2023-12-10 06:00",1.64,"Working","OW439"
"2023-12-10 07:00",1.61,"Working","OW439"
"2023-12-10 08:00",1.586,"Working","OW439"
"2023-12-10 09:00",1.565,"Working","OW439"
"2023-12-10 10:00",1.55,"Working","OW439"
"2023-12-10 11:00",1.537,"Working","OW439"
"2023-12-10 12:00",1.524,"Working","OW439"
"2023-12-10 13:00",1.51,"Working","OW439"
"2023-12-10 14:00",1.499,"Working","OW439"
"2023-12-10 15:00",1.492,"Working","OW439"
"2023-12-10 16:00",1.488,"Working","OW439"
"2023-12-10 17:00",1.488,"Working","OW439"
"2023-12-10 18:00",1.49,"Working","OW439"
"2023-12-10 19:00",1.491,"Working","OW439"
"2023-12-10 20:00",1.491,"Working","OW439"
"2023-12-10 21:00",1.493,"Working","OW439"
"2023-12-10 22:00",1.496,"Working","OW439"
"2023-12-10 23:00",1.499,"Working","OW439"
"2023-12-11 00:00",1.504,"Working","OW439"
"2023-12-11 01:00",1.509,"Working","OW439"
"2023-12-11 02:00",1.514,"Working","OW439"
"2023-12-11 03:00",1.52,"Working","OW439"
"2023-12-11 04:00",1.525,"Working","OW439"
"2023-12-11 05:00",1.529,"Working","OW439"
"2023-12-11 06:00",1.535,"Working","OW439"
"2023-12-11 07:00",1.54,"Working","OW439"
"2023-12-11 08:00",1.545,"Working","OW439"
"2023-12-11 09:00",1.548,"Working","OW439"
"2023-12-11 10:00",1.55,"Working","OW439"
"2023-12-11 11:00",1.553,"Working","OW439"
"2023-12-11 12:00",1.555,"Working","OW439"
"2023-12-11 13:00",1.557,"Working","OW439"
"2023-12-11 14:00",1.56,"Working","OW439"
"2023-12-11 15:00",1.562,"Working","OW439"
"2023-12-11 16:00",1.566,"Working","OW439"
"2023-12-11 17:00",1.57,"Working","OW439"
"2023-12-11 18:00",1.575,"Working","OW439"
"2023-12-11 19:00",1.578,"Working","OW439"
"2023-12-11 20:00",1.579,"Working","OW439"
"2023-12-11 21:00",1.581,"Working","OW439"
"2023-12-11 22:00",1.583,"Working","OW439"
"2023-12-11 23:00",1.584,"Working","OW439"
"2023-12-12 00:00",1.587,"Working","OW439"
"2023-12-12 01:00",1.59,"Working","OW439"
"2023-12-12 02:00",1.594,"Working","OW439"
"2023-12-12 03:00",1.599,"Working","OW439"
"2023-12-12 04:00",1.604,"Working","OW439"
"2023-12-12 05:00",1.609,"Working","OW439"
"2023-12-12 06:00",1.613,"Working","OW439"
"2023-12-12 07:00",1.618,"Working","OW439"
"2023-12-12 08:00",1.622,"Working","OW439"
"2023-12-12 09:00",1.624,"Working","OW439"
"2023-12-12 10:00",1.627,"Working","OW439"
"2023-12-12 11:00",1.629,"Working","OW439"
"2023-12-12 12:00",1.63,"Working","OW439"
"2023-12-12 13:00",1.631,"Working","OW439"
"2023-12-12 14:00",1.632,"Working","OW439"
"2023-12-12 15:00",1.635,"Working","OW439"
"2023-12-12 16:00",1.638,"Working","OW439"
"2023-12-12 17:00",1.642,"Working","OW439"
"2023-12-12 18:00",1.647,"Working","OW439"
"2023-12-12 19:00",1.651,"Working","OW439"
"2023-12-12 20:00",1.653,"Working","OW439"
"2023-12-12 21:00",1.655,"Working","OW439"
"2023-12-12 22:00",1.657,"Working","OW439"
"2023-12-12 23:00",1.658,"Working","OW439"
"2023-12-13 00:00",1.66,"Working","OW439"
"2023-12-13 01:00",1.664,"Working","OW439"
"2023-12-13 02:00",1.667,"Working","OW439"
"2023-12-13 03:00",1.672,"Working","OW439"
"2023-12-13 04:00",1.676,"Working","OW439"
"2023-12-13 05:00",1.679,"Working","OW439"
"2023-12-13 06:00",1.683,"Working","OW439"
"2023-12-13 07:00",1.687,"Working","OW439"
"2023-12-13 08:00",1.69,"Working","OW439"
"2023-12-13 09:00",1.693,"Working","OW439"
"2023-12-13 10:00",1.695,"Working","OW439"
"2023-12-13 11:00",1.699,"Working","OW439"
"2023-12-13 12:00",1.701,"Working","OW439"
"2023-12-13 13:00",1.702,"Working","OW439"
"2023-12-13 14:00",1.705,"Working","OW439"
"2023-12-13 15:00",1.708,"Working","OW439"
"2023-12-13 16:00",1.71,"Working","OW439"
"2023-12-13 17:00",1.714,"Working","OW439"
"2023-12-13 18:00",1.719,"Working","OW439"
"2023-12-13 19:00",1.724,"Working","OW439"
"2023-12-13 20:00",1.728,"Working","OW439"
"2023-12-13 21:00",1.73,"Working","OW439"
"2023-12-13 22:00",1.731,"Working","OW439"
"2023-12-13 23:00",1.734,"Working","OW439"
"2023-12-14 00:00",1.738,"Working","OW439"
"2023-12-14 01:00",1.742,"Working","OW439"
"2023-12-14 02:00",1.746,"Working","OW439"
"2023-12-14 03:00",1.751,"Working","OW439"
"2023-12-14 04:00",1.756,"Working","OW439"
"2023-12-14 05:00",1.761,"Working","OW439"
"2023-12-14 06:00",1.766,"Working","OW439"
"2023-12-14 07:00",1.772,"Working","OW439"
"2023-12-14 08:00",1.777,"Working","OW439"
"2023-12-14 09:00",1.782,"Working","OW439"
"2023-12-14 10:00",1.786,"Working","OW439"
"2023-12-14 11:00",1.79,"Working","OW439"
"2023-12-14 12:00",1.793,"Working","OW439"
"2023-12-14 13:00",1.795,"Working","OW439"
"2023-12-14 14:00",1.797,"Working","OW439"
"2023-12-14 15:00",1.801,"Working","OW439"
"2023-12-14 16:00",1.805,"Working","OW439"
"2023-12-14 17:00",1.809,"Working","OW439"
"2023-12-14 18:00",1.813,"Working","OW439"
"2023-12-14 19:00",1.817,"Working","OW439"
"2023-12-14 20:00",1.82,"Working","OW439"
"2023-12-14 21:00",1.824,"Working","OW439"
"2023-12-14 22:00",1.827,"Working","OW439"
"2023-12-14 23:00",1.829,"Working","OW439"
"2023-12-15 00:00",1.833,"Working","OW439"
"2023-12-15 01:00",1.836,"Working","OW439"
"2023-12-15 02:00",1.837,"Working","OW439"
"2023-12-15 03:00",1.84,"Working","OW439"
"2023-12-15 04:00",1.845,"Working","OW439"
"2023-12-15 05:00",1.846,"Working","OW439"
"2023-12-15 06:00",1.85,"Working","OW439"
"2023-12-15 07:00",1.855,"Working","OW439"
"2023-12-15 08:00",1.859,"Working","OW439"
"2023-12-15 09:00",1.863,"Working","OW439"
"2023-12-15 10:00",1.865,"Working","OW439"
"2023-12-15 11:00",1.867,"Working","OW439"
"2023-12-15 12:00",1.867,"Working","OW439"
"2023-12-15 13:00",1.861,"Working","OW439"
"2023-12-15 14:00",1.853,"Working","OW439"
"2023-12-15 15:00",1.845,"Working","OW439"
"2023-12-15 16:00",1.836,"Working","OW439"
"2023-12-15 17:00",1.831,"Working","OW439"
"2023-12-15 18:00",1.824,"Working","OW439"
"2023-12-15 19:00",1.82,"Working","OW439"
"2023-12-15 20:00",1.815,"Working","OW439"
"2023-12-15 21:00",1.81,"Working","OW439"
"2023-12-15 22:00",1.806,"Working","OW439"
"2023-12-15 23:00",1.804,"Working","OW439"
"2023-12-16 00:00",1.804,"Working","OW439"
"2023-12-16 01:00",1.803,"Working","OW439"
"2023-12-16 02:00",1.802,"Working","OW439"
"2023-12-16 03:00",1.802,"Working","OW439"
"2023-12-16 04:00",1.802,"Working","OW439"
"2023-12-16 05:00",1.803,"Working","OW439"
"2023-12-16 06:00",1.804,"Working","OW439"
"2023-12-16 07:00",1.805,"Working","OW439"
"2023-12-16 08:00",1.807,"Working","OW439"
"2023-12-16 09:00",1.809,"Working","OW439"
"2023-12-16 10:00",1.811,"Working","OW439"
"2023-12-16 11:00",1.815,"Working","OW439"
"2023-12-16 12:00",1.818,"Working","OW439"
"2023-12-16 13:00",1.82,"Working","OW439"
"2023-12-16 14:00",1.821,"Working","OW439"
"2023-12-16 15:00",1.823,"Working","OW439"
"2023-12-16 16:00",1.824,"Working","OW439"
"2023-12-16 17:00",1.828,"Working","OW439"
"2023-12-16 18:00",1.832,"Working","OW439"
"2023-12-16 19:00",1.835,"Working","OW439"
"2023-12-16 20:00",1.837,"Working","OW439"
"2023-12-16 21:00",1.84,"Working","OW439"
"2023-12-16 22:00",1.842,"Working","OW439"
"2023-12-16 23:00",1.845,"Working","OW439"
"2023-12-17 00:00",1.851,"Working","OW439"
"2023-12-17 01:00",1.856,"Working","OW439"
"2023-12-17 02:00",1.859,"Working","OW439"
"2023-12-17 03:00",1.861,"Working","OW439"
"2023-12-17 04:00",1.865,"Working","OW439"
"2023-12-17 05:00",1.868,"Working","OW439"
"2023-12-17 06:00",1.871,"Working","OW439"
"2023-12-17 07:00",1.874,"Working","OW439"
"2023-12-17 08:00",1.878,"Working","OW439"
"2023-12-17 09:00",1.881,"Working","OW439"
"2023-12-17 10:00",1.885,"Working","OW439"
"2023-12-17 11:00",1.888,"Working","OW439"
"2023-12-17 12:00",1.891,"Working","OW439"
"2023-12-17 13:00",1.894,"Working","OW439"
"2023-12-17 14:00",1.896,"Working","OW439"
"2023-12-17 15:00",1.899,"Working","OW439"
"2023-12-17 16:00",1.9,"Working","OW439"
"2023-12-17 17:00",1.902,"Working","OW439"
"2023-12-17 18:00",1.906,"Working","OW439"
"2023-12-17 19:00",1.908,"Working","OW439"
"2023-12-17 20:00",1.909,"Working","OW439"
"2023-12-17 21:00",1.909,"Working","OW439"
"2023-12-17 22:00",1.911,"Working","OW439"
"2023-12-17 23:00",1.913,"Working","OW439"
"2023-12-18 00:00",1.916,"Working","OW439"
"2023-12-18 01:00",1.92,"Working","OW439"
"2023-12-18 02:00",1.923,"Working","OW439"
"2023-12-18 03:00",1.927,"Working","OW439"
"2023-12-18 04:00",1.929,"Working","OW439"
"2023-12-18 05:00",1.932,"Working","OW439"
"2023-12-18 06:00",1.936,"Working","OW439"
"2023-12-18 07:00",1.937,"Working","OW439"
"2023-12-18 08:00",1.939,"Working","OW439"
"2023-12-18 09:00",1.943,"Working","OW439"
"2023-12-18 10:00",1.946,"Working","OW439"
"2023-12-18 11:00",1.95,"Working","OW439"
"2023-12-18 12:00",1.953,"Working","OW439"
"2023-12-18 13:00",1.957,"Working","OW439"
"2023-12-18 14:00",1.96,"Working","OW439"
"2023-12-18 15:00",1.963,"Working","OW439"
"2023-12-18 16:00",1.966,"Working","OW439"
"2023-12-18 17:00",1.968,"Working","OW439"
"2023-12-18 18:00",1.973,"Working","OW439"
"2023-12-18 19:00",1.976,"Working","OW439"
"2023-12-18 20:00",1.978,"Working","OW439"
"2023-12-18 21:00",1.981,"Working","OW439"
"2023-12-18 22:00",1.983,"Working","OW439"
"2023-12-18 23:00",1.986,"Working","OW439"
"2023-12-19 00:00",1.99,"Working","OW439"
"2023-12-19 01:00",1.995,"Working","OW439"
"2023-12-19 02:00",1.999,"Working","OW439"
"2023-12-19 03:00",2.002,"Working","OW439"
"2023-12-19 04:00",2.006,"Working","OW439"
"2023-12-19 05:00",2.009,"Working","OW439"
"2023-12-19 06:00",2.013,"Working","OW439"
"2023-12-19 07:00",2.016,"Working","OW439"
"2023-12-19 08:00",2.014,"Working","OW439"
"2023-12-19 09:00",2.012,"Working","OW439"
"2023-12-19 10:00",2.011,"Working","OW439"
"2023-12-19 11:00",2.011,"Working","OW439"
"2023-12-19 12:00",2.012,"Working","OW439"
"2023-12-19 13:00",2.013,"Working","OW439"
"2023-12-19 14:00",2.014,"Working","OW439"
"2023-12-19 15:00",2.017,"Working","OW439"
"2023-12-19 16:00",2.018,"Working","OW439"
"2023-12-19 17:00",2.02,"Working","OW439"
"2023-12-19 18:00",2.023,"Working","OW439"
"2023-12-19 19:00",2.025,"Working","OW439"
"2023-12-19 20:00",2.026,"Working","OW439"
"2023-12-19 21:00",2.027,"Working","OW439"
"2023-12-19 22:00",2.029,"Working","OW439"
"2023-12-19 23:00",2.032,"Working","OW439"
"2023-12-20 00:00",2.035,"Working","OW439"
"2023-12-20 01:00",2.039,"Working","OW439"
"2023-12-20 02:00",2.041,"Working","OW439"
"2023-12-20 03:00",2.041,"Working","OW439"
"2023-12-20 04:00",2.042,"Working","OW439"
"2023-12-20 05:00",2.042,"Working","OW439"
"2023-12-20 06:00",2.041,"Working","OW439"
"2023-12-20 07:00",2.039,"Working","OW439"
"2023-12-20 08:00",2.038,"Working","OW439"
"2023-12-20 09:00",2.035,"Working","OW439"
"2023-12-20 10:00",2.033,"Working","OW439"
"2023-12-20 11:00",2.034,"Working","OW439"
"2023-12-20 12:00",2.034,"Working","OW439"
"2023-12-20 13:00",2.033,"Working","OW439"
"2023-12-20 14:00",2.033,"Working","OW439"
"2023-12-20 15:00",2.033,"Working","OW439"
"2023-12-20 16:00",2.034,"Working","OW439"
"2023-12-20 17:00",2.034,"Working","OW439"
"2023-12-20 18:00",2.034,"Working","OW439"
"2023-12-20 19:00",2.034,"Working","OW439"
"2023-12-20 20:00",2.034,"Working","OW439"
"2023-12-20 21:00",2.033,"Working","OW439"
"2023-12-20 22:00",2.033,"Working","OW439"
"2023-12-20 23:00",2.034,"Working","OW439"
"2023-12-21 00:00",2.036,"Working","OW439"
"2023-12-21 01:00",2.039,"Working","OW439"
"2023-12-21 02:00",2.042,"Working","OW439"
"2023-12-21 03:00",2.047,"Working","OW439"
"2023-12-21 04:00",2.05,"Working","OW439"
"2023-12-21 05:00",2.052,"Working","OW439"
"2023-12-21 06:00",2.054,"Working","OW439"
"2023-12-21 07:00",2.057,"Working","OW439"
"2023-12-21 08:00",2.058,"Working","OW439"
"2023-12-21 09:00",2.06,"Working","OW439"
"2023-12-21 10:00",2.062,"Working","OW439"
"2023-12-21 11:00",2.064,"Working","OW439"
"2023-12-21 12:00",2.067,"Working","OW439"
"2023-12-21 13:00",2.069,"Working","OW439"
"2023-12-21 14:00",2.07,"Working","OW439"
"2023-12-21 15:00",2.073,"Working","OW439"
"2023-12-21 16:00",2.075,"Working","OW439"
"2023-12-21 17:00",2.078,"Working","OW439"
"2023-12-21 18:00",2.08,"Working","OW439"
"2023-12-21 19:00",2.082,"Working","OW439"
"2023-12-21 20:00",2.081,"Working","OW439"
"2023-12-21 21:00",2.082,"Working","OW439"
"2023-12-21 22:00",2.081,"Working","OW439"
"2023-12-21 23:00",2.082,"Working","OW439"
"2023-12-22 00:00",2.084,"Working","OW439"
"2023-12-22 01:00",2.087,"Working","OW439"
"2023-12-22 02:00",2.09,"Working","OW439"
"2023-12-22 03:00",2.092,"Working","OW439"
"2023-12-22 04:00",2.094,"Working","OW439"
"2023-12-22 05:00",2.096,"Working","OW439"
"2023-12-22 06:00",2.098,"Working","OW439"
"2023-12-22 07:00",2.099,"Working","OW439"
"2023-12-22 08:00",2.101,"Working","OW439"
"2023-12-22 09:00",2.102,"Working","OW439"
"2023-12-22 10:00",2.102,"Working","OW439"
"2023-12-22 11:00",2.104,"Working","OW439"
"2023-12-22 12:00",2.105,"Working","OW439"
"2023-12-22 13:00",2.107,"Working","OW439"
"2023-12-22 14:00",2.113,"Working","OW439"
"2023-12-22 15:00",2.119,"Working","OW439"
"2023-12-22 16:00",2.122,"Working","OW439"
"2023-12-22 17:00",2.127,"Working","OW439"
"2023-12-22 18:00",2.134,"Working","OW439"
"2023-12-22 19:00",2.14,"Working","OW439"
"2023-12-22 20:00",2.145,"Working","OW439"
"2023-12-22 21:00",2.148,"Working","OW439"
"2023-12-22 22:00",2.151,"Working","OW439"
"2023-12-22 23:00",2.156,"Working","OW439"
"2023-12-23 00:00",2.16,"Working","OW439"
"2023-12-23 01:00",2.165,"Working","OW439"
"2023-12-23 02:00",2.17,"Working","OW439"
"2023-12-23 03:00",2.175,"Working","OW439"
"2023-12-23 04:00",2.18,"Working","OW439"
"2023-12-23 05:00",2.184,"Working","OW439"
"2023-12-23 06:00",2.188,"Working","OW439"
"2023-12-23 07:00",2.192,"Working","OW439"
"2023-12-23 08:00",2.194,"Working","OW439"
"2023-12-23 09:00",2.196,"Working","OW439"
"2023-12-23 10:00",2.198,"Working","OW439"
"2023-12-23 11:00",2.201,"Working","OW439"
"2023-12-23 12:00",2.202,"Working","OW439"
"2023-12-23 13:00",2.204,"Working","OW439"
"2023-12-23 14:00",2.206,"Working","OW439"
"2023-12-23 15:00",2.21,"Working","OW439"
"2023-12-23 16:00",2.214,"Working","OW439"
"2023-12-23 17:00",2.218,"Working","OW439"
"2023-12-23 18:00",2.221,"Working","OW439"
"2023-12-23 19:00",2.224,"Working","OW439"
"2023-12-23 20:00",2.224,"Working","OW439"
"2023-12-23 21:00",2.225,"Working","OW439"
"2023-12-23 22:00",2.225,"Working","OW439"
"2023-12-23 23:00",2.227,"Working","OW439"
"2023-12-24 00:00",2.228,"Working","OW439"
"2023-12-24 01:00",2.23,"Working","OW439"